Charalambos Charalambous

Chefscout - Ethnikos Achnas
2 Jun 2028
Freitag
Verarbeitung

Persönlichkeit

Anpassungsfähigkeit (13) Ehrgeiz (1) Kontroverse (4) Loyalität (7) Druck (4) Professionalität (19) Fairness (19) Temperament (2)

Profil

Trainerstil Demokratisch
Lizenz Kontinentale Pro
Entschlossenheit 3
Menschenführung 9
Motivation 9
Disziplin 8
Arbeitszufriedenheit
87%
Ermüdung
0%
Rolle Chefscout
Gehalt 25.9K p/W
Vertrag 14.03.2029

Leistung

Verhalten Gut
Trainingseffektivität
29%
Spielerentwicklung
50%
Verletzungsprävention
40%
Taktische Umsetzung
30%

Letzte Ereignisse

Geburtstag 14T her

Aktuell beobachtet

53
Spieler Verein Status Fähigkeit Vertrauen Beobachtet Zuletzt beobachtet Letzte Stimme
Jesús Molina Omonoia Aktiv 99 / 86 58% 1 01.06.2028 -
Emilio Di Fulvio Colegiales Aktiv 100 / 135 40% 6 02.08.2027 -
Alejandro Araque Deportivo Tachira Aktiv 119 / 128 40% 3 02.08.2027 -
Nicholas Ammeter Arouca Aktiv 97 / 122 40% 2 01.08.2027 -
Juan Martín Rojas Rosario Central Aktiv 124 / 123 40% 2 01.08.2027 -
Will Dennis Milton Keynes Dons Aktiv 123 / 117 40% 1 01.08.2027 -
Gianluca Saro Foggia Aktiv 133 / 96 40% 4 30.07.2027 -
Miguel Ortega Deportes Tolima Aktiv 129 / 140 40% 1 30.07.2027 -
Álvaro Montero Boca Juniors Aktiv 143 / 125 40% 2 29.07.2027 -
Fabrizio Alastra Altamura Aktiv 111 / 127 40% 1 28.07.2027 -
Gianmarco Vannucchi Benevento Aktiv 129 / 118 40% 5 27.07.2027 -
Pedro González Cerro Largo Aktiv 128 / 104 40% 2 26.07.2027 -
Miguel Silva Mineros de Guayana Aktiv 123 / 106 40% 1 26.07.2027 -
Fabricio Hass Gijón Aktiv 124 / 120 40% 1 26.07.2027 -
Kewin Damac Aktiv 105 / 114 40% 3 25.07.2027 -
Matías Borgogno San Martín SJ Aktiv 131 / 128 40% 1 25.07.2027 -
Francesco D'Alterio Ternana Aktiv 113 / 111 40% 6 22.07.2027 -
Jerónimo Pourtau Estudiantes Aktiv 133 / 97 40% 2 22.07.2027 -
Shamal George Walsall Aktiv 96 / 126 40% 1 19.07.2027 -
Lucas Chaves Argentinos Juniors Aktiv 113 / 137 40% 1 18.07.2027 -
Richard Ludha MFK Skalica Aktiv 132 / 111 40% 2 17.07.2027 -
Žiga Frelih NK Celje Aktiv 118 / 102 40% 1 16.07.2027 -
Liam Roberts Mansfield Town Aktiv 115 / 102 40% 1 16.07.2027 -
Daniel Prieto Alianza Atletico Aktiv 107 / 123 40% 1 14.07.2027 -
Albert Valjent FK Senica Aktiv 94 / 92 40% 1 14.07.2027 -
Mauro Casoli Giugliano Aktiv 120 / 122 40% 1 11.07.2027 -
Alfie Whiteman Barrow AFC Aktiv 121 / 86 40% 1 09.07.2027 -
Jacob Karlstrøm Anorthosis Aktiv 130 / 106 40% 2 08.07.2027 -
Nicolás Nocetti Sarmiento Aktiv 105 / 97 40% 1 08.07.2027 -
Nathan Bishop AFC Wimbledon Aktiv 107 / 107 40% 2 07.07.2027 -
Lucas França Doncaster Rovers Aktiv 120 / 129 40% 1 06.07.2027 -
Adam Jakubech MFK Michalovce Aktiv 113 / 115 40% 1 06.07.2027 -
Riccardo Gagno Vicenza Aktiv 132 / 141 40% 5 04.07.2027 -
Niccolò Chiorra Casarano Aktiv 95 / 91 40% 1 04.07.2027 -
Alexandr Vasyutin AEL Aktiv 117 / 113 40% 2 02.07.2027 -
Samuele Vitale Ascoli Aktiv 100 / 117 40% 2 01.07.2027 -
Daniel Bachmann Watford Aktiv 112 / 128 40% 2 28.06.2027 -
Tommaso Nobile Renate Aktiv 100 / 114 40% 2 25.06.2027 -
Lévi Ntumba Slavia Sofia Aktiv 98 / 125 40% 1 25.06.2027 -
Daniele Sommariva Arzignano Aktiv 91 / 126 40% 1 25.06.2027 -
Kristjan Matošević Triestina Aktiv 93 / 99 40% 1 23.06.2027 -
Andrea Zaccagno Torres Aktiv 119 / 107 40% 1 22.06.2027 -
Sergey Volkov Rodina Aktiv 112 / 85 40% 1 20.06.2027 -
Luca Gemello Perugia Aktiv 111 / 130 40% 2 19.06.2027 -
Lorenzo Andrenacci Lumezzane Aktiv 112 / 135 40% 1 18.06.2027 -
Francisco Casanova Najran Aktiv 93 / 117 40% 1 15.06.2027 -
Joaquín Mendive Tristán Suárez Aktiv 102 / 99 40% 1 14.06.2027 -
Facundo Romero Ermis Aktiv 77 / 72 55% 1 07.06.2027 -
Nicolae Milinceanu Doxa Aktiv 101 / 88 55% 1 01.06.2027 -
Migouel Alfarela Aris Thessaloniki Aktiv 95 / 99 40% 1 05.08.2026 -
Tomás Salteño Rosario Central Aktiv 91 / 76 40% 1 04.08.2026 -
Nicolás Molina Temperley Aktiv 89 / 131 40% 1 01.08.2026 -
Samuel Obeng Albacete Aktiv 127 / 123 40% 1 01.08.2026 -